Simultaneous Nadir Overpasses (SNOs) Predictions

Prediction of SNOs between TERRA and METOP-C Satellite Orbit:

Table of predicted SNOs for the next 14.0 days since TLE Epoch: 5/25/2019
Index Date (TERRA) Time (TERRA) Lat,Lon (TERRA) SZA (TERRA ) Date (METOP-C) Time (METOP-C) Lat,Lon (METOP-C) SZA (METOP-C ) Distance(km) Time Diff (sec)
1 05/26/2019 02:27:40 -81.29, 10.13 116.78 05/26/2019 02:27:36 -81.30, 10.20 116.77 1.46 4
2 05/26/2019 03:17:06 81.30, 177.91 63.24 05/26/2019 03:18:15 81.30, 177.90 63.28 0.60 69
3 05/28/2019 21:12:27 81.29, -91.11 62.75 05/28/2019 21:11:18 81.29, -91.21 62.70 1.73 69
4 05/28/2019 22:01:53 -81.31, 76.81 117.22 05/28/2019 22:01:58 -81.30, 76.81 117.22 0.31 5
5 05/31/2019 16:46:41 81.30, -24.48 62.35 05/31/2019 16:45:41 81.29, -24.64 62.30 2.79 60
6 05/31/2019 17:36:08 -81.30, 143.10 117.67 05/31/2019 17:36:22 -81.30, 143.03 117.67 1.14 14
7 06/03/2019 12:20:56 81.29, 41.75 61.93 06/03/2019 12:20:04 81.30, 41.94 61.94 3.24 52
8 06/03/2019 13:10:22 -81.31,-150.26 118.02 06/03/2019 13:10:45 -81.30,-150.36 118.03 1.70 23
9 06/06/2019 07:55:09 81.30, 108.34 61.62 06/06/2019 07:54:26 81.30, 108.52 61.63 3.01 43




NCC Satellite Simultaneous Nadir Overpasses (SNOs) Prediction Service
